This is the latest recevied weather packets stored in our database for station/object CQ0XPG-11. If no packets are shown the sender has not sent any weather packets the latest 10 day(s).
| Time | Temp. | Humidity | Pressure | Rain* | Wind** | Luminosity | Snow |
|---|---|---|---|---|---|---|---|
| 1777993523 | 17.78° C | 61% | 1006.2 hPa | 0 mm | - | - | - |
| 1777993210 | 17.22° C | 62% | 1006.2 hPa | 0 mm | - | - | - |
| 1777992598 | 17.22° C | 62% | 1006.3 hPa | 0 mm | - | - | - |
| 1777992323 | 16.67° C | 64% | 1006.2 hPa | 0 mm | - | - | - |
| 1777991701 | 16.67° C | 61% | 1006.5 hPa | 0 mm | - | - | - |
| 1777991119 | 16.67° C | 61% | 1006.5 hPa | 0 mm | - | - | - |
| 1777990788 | 16.67° C | 61% | 1006.5 hPa | 0 mm | - | - | - |
| 1777990492 | 16.67° C | 65% | 1006.5 hPa | 0 mm | - | - | - |
| 1777989883 | 16.67° C | 61% | 1006.7 hPa | 0 mm | - | - | - |
| 1777989577 | 16.67° C | 62% | 1006.7 hPa | 0 mm | - | - | - |
| 1777989283 | 16.11° C | 68% | 1006.7 hPa | 0 mm | - | - | - |
| 1777988670 | 16.11° C | 67% | 1006.8 hPa | 0 mm | - | - | - |
| 1777988370 | 16.11° C | 62% | 1006.8 hPa | 0 mm | - | - | - |
| 1777987756 | 16.67° C | 58% | 1006.9 hPa | 0 mm | - | - | - |
| 1777987465 | 16.67° C | 61% | 1006.8 hPa | 0 mm | - | - | - |
| 1777987159 | 16.67° C | 61% | 1006.8 hPa | 0 mm | - | - | - |
| 1777986851 | 16.67° C | 60% | 1007 hPa | 0 mm | - | - | - |
| 1777986540 | 16.11° C | 60% | 1007 hPa | 0 mm | - | - | - |
| 1777986246 | 16.67° C | 58% | 1007 hPa | 0 mm | - | - | - |
| 1777985950 | 16.67° C | 57% | 1007.1 hPa | 0 mm | - | - | - |
| 1777985655 | 16.67° C | 58% | 1007.1 hPa | 0 mm | - | - | - |
| 1777985027 | 17.22° C | 55% | 1007 hPa | 0 mm | - | - | - |
| 1777984720 | 16.67° C | 59% | 1006.9 hPa | 0 mm | - | - | - |
| 1777984437 | 16.67° C | 58% | 1007.1 hPa | 0 mm | - | - | - |
| 1777984113 | 16.67° C | 58% | 1007.2 hPa | 0 mm | - | - | - |
* Rain since midnight (hover to see other rain measurements)
** Current wind speed in m/s (hover to see current wind gust speed)